• Join FlightAware (Why Join?)
  • Login
  • US Flag 
09:23PM EST


 

Airport Tracker/Info


-or-


 

Live Flight TrackerFlight Track Log ✈ N33TR ✈ 24-Jul-2013 ✈ T41 - KDAL

Flight Track Log - Related Links

Times and Time Zones

All times are in EDT time to prevent confusion due to time zone crossing. See the N33TR flight status page for this flight to view local times or setup timezone preferences in your user account.

Time Position Orientation Groundspeed Altitude Reporting Facility
EDT Latitude Longitude Course Direction KTS MPH feet Rate Location/Type
03:21PM 29.6767 -95.0772 20° North 146 168 500  Level Houston Center
03:22PM 29.7331 -95.0533 20° North 248 285 3,500 2,400 Climbing Houston Center
03:23PM 29.7728 -95.0344 22° Northeast 269 310 5,200 2,640 Climbing Houston Center
03:24PM 29.8486 -95.0192 10° North 275 316 8,100 2,700 Climbing Houston Center
03:25PM 29.9275 -95.0000 12° North 290 334 10,900 2,460 Climbing Houston Center
03:26PM 30.0222 -95.0631 330° Northwest 324 373 13,300 2,160 Climbing Houston Center
03:27PM 30.1031 -95.1172 330° Northwest 333 383 15,400 1,920 Climbing Houston Center
03:28PM 30.1889 -95.1708 332° Northwest 345 397 17,300 1,860 Climbing Houston Center
03:29PM 30.2725 -95.2306 328° Northwest 351 404 19,300 1,920 Climbing Houston Center
03:30PM 30.3547 -95.2931 327° Northwest 351 404 21,300 1,860 Climbing Houston Center
03:31PM 30.4347 -95.3528 327° Northwest 345 397 23,200 1,800 Climbing Houston Center
03:32PM 30.5325 -95.4200 329° Northwest 339 390 25,100 1,200 Climbing Houston Center
03:33PM 30.6125 -95.4822 326° Northwest 344 396 25,700 420 Climbing Houston Center
03:34PM 30.7122 -95.5122 345° North 365 420 26,000 120 Climbing Houston Center
03:35PM 30.8203 -95.5403 347° North 384 442 26,000  Level Houston Center
03:36PM 30.9325 -95.5642 350° North 399 459 26,000  Level Houston Center
03:37PM 31.0469 -95.5900 349° North 410 472 26,000  Level Houston Center
03:38PM 31.1642 -95.6172 349° North 419 482 26,000 -420 Level Houston Center
03:39PM 31.3053 -95.6486 349° North 425 489 25,200 -900 Descending Houston Center
03:40PM 31.4225 -95.7058 337° Northwest 452 520 24,200 -600 Descending Houston Center
03:41PM 31.5297 -95.7775 330° Northwest 445 512 24,000 -120 Descending Houston Center
03:42PM 31.6378 -95.8492 331° Northwest 443 510 24,000 -480 Level Fort Worth Center
03:43PM 31.7369 -95.9208 328° Northwest 430 495 23,100 -2,040 Descending Fort Worth Center
03:44PM 31.8461 -95.9875 333° Northwest 430 495 20,000 -3,240 Descending Fort Worth Center
03:45PM 31.9514 -96.0569 331° Northwest 436 502 16,600 -3,360 Descending Fort Worth Center
03:46PM 32.0461 -96.1242 329° Northwest 408 470 13,300 -2,880 Descending Fort Worth Center
03:47PM 32.1386 -96.1867 330° Northwest 398 458 11,000 -1,440 Descending Fort Worth Center
03:48PM 32.2247 -96.2419 331° Northwest 363 418 10,400 -540 Descending Fort Worth Center
03:49PM 32.3150 -96.2950 334° Northwest 330 380 10,000 -240 Descending Fort Worth Center
03:50PM 32.3842 -96.3358 334° Northwest 315 362 10,000 -300 Level Fort Worth Center
03:51PM 32.4575 -96.3817 332° Northwest 282 325 9,400 -840 Descending Fort Worth Center
03:52PM 32.5142 -96.4156 333° Northwest 254 292 8,400 -1,260 Descending Fort Worth Center
03:53PM 32.5814 -96.4569 333° Northwest 248 285 7,000 -900 Descending Fort Worth Center
03:54PM 32.6400 -96.4908 334° Northwest 248 285 6,700 -600 Descending Fort Worth Center
03:55PM 32.6886 -96.5569 311° West 248 285 5,800 -840 Descending Fort Worth Center
03:56PM 32.7347 -96.6158 313° West 260 299 5,100 -420 Descending Fort Worth Center
03:57PM 32.8000 -96.6667 327° Northwest 263 303 5,000 -420 Descending Dallas / Fort Worth TRACON
03:58PM 32.8667 -96.7333 320° Northwest 252 290 4,300 -480 Descending Dallas / Fort Worth TRACON
03:59PM 32.9167 -96.7833 320° Northwest 237 273 4,000 -180 Descending Dallas / Fort Worth TRACON
04:01PM 32.9667 -96.8167 331° Northwest 215 247 4,000 -60 Level Dallas / Fort Worth TRACON
04:01PM 32.9833 -96.8667 292° West 205 236 3,900 -960 Descending Dallas / Fort Worth TRACON
04:02PM 32.9500 -96.9333 239° Southwest 237 273 2,300 -1,080 Descending Dallas / Fort Worth TRACON
04:03PM 32.9000 -96.9000 151° Southeast 195 224 1,700 -780 Descending Dallas / Fort Worth TRACON
04:04PM 32.8667 -96.8667 140° Southeast 167 192 900 -900 Descending Dallas / Fort Worth TRACON
04:06PM 32.8471 -96.8518 180° South  Level Estimated
04:13PM 32.8471 -96.8518 180° South  Level Estimated